GFSSW_925_spd_057.txt.gz
Wind_Speed
20 20 20 19 19 19 19 17 16 15 16 18 18 18 18 19 22 16 7 7 5 10 10 12 11 12 13 6 8 6 5 12 19 18 17 13 14 15 8 8 9 3 5 4 17
21 21 21 20 20 19 18 17 16 16 17 18 17 18 18 19 19 12 5 3 7 8 5 6 7 10 4 4 6 7 7 17 14 15 17 16 13 15 11 8 8 7 4 9 20
22 22 22 21 21 20 18 18 17 18 18 19 20 20 20 17 5 1 6 1 6 6 7 8 15 10 6 8 11 8 17 14 16 17 20 22 21 17 17 10 10 7 7 6 9
22 22 23 22 21 19 18 18 18 19 20 21 21 21 21 3 4 7 2 1 2 5 5 8 7 6 4 8 7 16 17 18 20 20 23 25 21 22 17 15 12 9 7 6 10
23 24 24 23 22 19 18 18 18 20 23 22 20 17 8 3 6 5 2 4 9 8 11 7 7 6 10 6 14 18 17 17 19 18 20 23 26 22 22 17 19 12 9 9 13
24 26 27 24 22 20 19 18 19 22 23 19 14 12 3 4 2 3 4 9 15 6 8 10 4 9 5 7 8 8 14 16 16 18 19 21 24 19 23 17 20 18 10 7 9
26 28 28 26 23 21 19 19 20 21 19 15 9 5 5 11 3 5 8 6 8 4 3 9 13 8 9 9 8 13 11 15 16 14 13 8 19 28 21 14 16 20 20 15 8
28 28 29 28 25 21 19 19 19 19 16 10 8 2 6 3 4 6 9 14 4 6 8 14 8 4 5 7 8 7 8 7 1 10 15 8 26 22 11 18 21 15 18 21 13
29 31 32 30 26 21 19 20 21 19 14 9 4 5 7 10 3 7 9 7 7 9 11 11 5 6 6 6 5 6 8 12 16 13 12 11 25 24 16 14 16 20 18 18 21
31 33 33 31 24 18 20 21 13 12 5 4 10 6 9 7 6 8 14 4 6 7 8 7 5 6 4 4 5 8 8 9 12 5 7 13 20 17 16 21 21 18 15 16 18
34 34 34 29 21 14 19 7 3 1 4 8 8 9 14 7 7 6 4 3 8 7 5 6 5 6 11 9 10 11 12 12 14 11 13 12 18 20 15 16 17 22 20 16 17
37 34 33 26 16 9 10 4 8 7 7 13 15 14 8 4 4 9 4 2 6 7 9 7 5 8 13 13 13 12 13 12 10 10 14 13 19 19 18 17 17 18 19 21 14
39 35 30 21 13 9 7 6 11 11 3 11 9 4 6 2 7 8 1 3 5 7 8 6 9 14 13 11 14 14 14 13 14 11 14 9 16 22 21 16 17 19 16 16 22
40 33 26 18 9 8 4 10 13 9 2 6 6 3 3 5 6 15 3 4 3 7 9 6 10 13 10 10 11 10 13 17 16 12 9 4 16 12 17 22 15 17 17 12 9
40 32 19 10 14 8 7 11 10 1 3 5 7 9 4 5 5 8 12 7 9 12 7 11 13 8 8 6 11 12 12 16 16 14 13 12 11 15 9 18 18 16 18 20 13
38 29 17 3 10 13 16 13 9 1 2 5 6 1 3 5 9 2 5 6 10 12 11 15 12 3 3 7 8 13 12 9 7 3 11 14 11 20 14 19 20 21 19 21 22
36 21 11 8 5 19 15 9 1 2 3 7 6 12 10 14 9 6 1 6 7 6 4 7 6 6 5 5 5 8 8 4 4 2 5 10 11 16 19 20 19 18 19 22 20
34 10 5 8 7 14 17 3 2 8 11 12 11 13 14 6 4 6 3 5 8 10 5 5 5 9 7 3 6 5 4 4 5 10 15 13 9 14 10 16 16 14 19 18 20
30 6 4 4 6 9 3 2 3 9 10 12 13 10 7 16 12 9 7 5 6 6 3 3 4 10 16 15 10 11 5 10 10 15 8 11 18 16 20 5 16 20 23 26 26
25 6 5 4 3 4 2 4 4 12 11 9 7 7 11 12 9 10 8 8 6 10 2 4 13 7 11 13 8 3 7 7 4 6 5 4 11 5 13 16 18 21 23 26 31
4 2 3 2 1 1 1 4 11 12 8 4 8 8 9 9 10 11 6 14 10 10 8 6 1 7 10 4 2 4 3 2 5 6 3 5 3 2 9 11 16 17 25 22 23
7 1 6 2 1 2 2 9 13 14 5 8 6 4 5 8 7 10 7 8 9 7 5 5 4 5 16 19 5 4 5 4 2 6 3 3 7 3 6 10 14 15 20 21 23
6 3 4 4 1 2 7 11 17 8 1 3 5 10 6 7 7 2 8 9 5 4 1 1 3 5 10 4 1 2 5 7 5 4 7 7 6 2 3 11 10 12 14 14 22
3 4 3 2 4 6 8 8 11 13 8 6 5 6 8 9 7 4 9 6 6 6 4 5 4 8 8 12 14 19 20 17 6 4 10 12 10 26 6 5 7 13 14 17 19
3 3 3 4 4 9 9 9 15 12 8 11 8 12 11 7 7 7 11 13 10 3 3 3 5 9 14 20 22 24 22 20 18 11 12 17 23 5 4 6 3 3 12 16 25
4 4 5 5 8 8 11 5 10 14 11 7 7 11 9 8 11 15 14 8 5 4 3 6 4 8 18 19 17 20 18 17 15 11 6 16 11 12 5 6 3 5 14 21 21
10 8 3 5 6 7 5 12 14 12 6 6 7 12 13 15 16 14 11 14 12 12 14 9 3 1 7 12 18 6 8 10 10 10 12 3 11 16 12 1 8 13 14 20 17

GFSSW_925_spd_060.txt.gz
Wind_Speed
17 17 17 17 17 17 16 15 15 15 15 17 17 18 19 21 22 16 6 6 5 5 8 9 9 8 7 3 4 1 2 8 7 11 9 14 7 14 10 9 8 6 3 7 15
18 18 18 18 18 18 16 15 15 15 16 17 18 19 20 21 19 10 7 8 8 8 5 3 4 3 3 5 4 5 5 8 6 10 9 14 18 18 17 21 14 9 9 13 28
20 20 20 20 20 19 17 16 15 15 16 18 19 19 19 16 4 5 9 6 5 4 6 3 6 2 4 4 5 4 11 6 7 6 8 16 22 17 15 18 15 3 8 7 6
23 22 22 22 21 20 18 16 16 16 18 20 19 15 14 1 2 5 5 4 4 3 2 2 3 2 2 5 4 8 10 7 9 13 13 19 20 20 17 20 19 11 7 3 0
24 24 25 24 22 20 18 17 16 17 18 18 15 9 3 1 7 7 3 5 7 6 6 4 2 3 3 4 4 8 10 10 11 13 13 14 21 22 26 21 19 20 9 4 5
25 26 26 26 25 22 19 18 17 16 16 15 10 5 1 3 3 4 4 8 11 9 6 6 3 4 1 2 1 5 5 10 7 10 8 14 19 16 28 19 17 20 15 7 6
28 28 28 28 28 24 20 18 17 14 14 11 7 1 2 10 4 6 8 9 11 16 3 7 1 4 2 8 3 6 7 8 5 3 5 6 18 21 15 11 16 17 18 13 9
30 31 31 30 28 25 21 18 16 15 13 6 4 2 6 7 6 2 4 8 8 2 8 11 8 4 3 2 7 5 1 1 3 6 5 7 23 19 12 13 20 15 16 19 11
32 35 32 30 28 24 21 16 17 15 6 3 1 2 8 8 3 2 3 5 6 9 12 12 6 4 2 2 4 3 4 4 5 6 6 7 17 6 9 10 17 18 15 13 17
33 37 33 31 26 23 18 17 7 3 4 2 3 2 7 2 5 3 6 6 4 6 5 0 3 2 2 3 4 6 6 4 3 3 2 9 15 6 7 8 8 9 12 16 17
34 37 34 30 22 19 17 3 5 4 2 6 4 4 11 3 2 4 8 1 4 4 2 3 3 4 8 9 11 7 7 6 4 5 4 8 16 13 6 6 9 11 12 13 14
35 37 33 28 20 12 9 1 2 5 7 9 12 11 22 16 1 6 4 3 2 4 5 7 3 3 5 6 6 7 5 7 4 9 11 9 20 18 11 6 8 11 13 9 12
36 35 32 22 14 6 5 9 5 9 2 7 5 5 7 8 7 8 4 4 3 1 5 2 9 9 7 7 6 5 4 6 7 11 5 6 19 12 11 7 8 8 8 9 10
36 34 29 19 3 13 5 8 10 3 3 4 3 4 4 2 4 9 9 5 1 5 4 6 7 4 6 4 3 2 6 9 11 8 3 4 13 14 14 11 8 9 9 10 13
36 32 24 7 10 5 17 16 12 3 4 7 4 4 3 4 2 4 12 3 6 7 5 10 5 8 4 2 1 4 3 4 5 8 2 5 6 9 14 19 18 15 14 17 16
38 26 17 3 8 10 19 16 5 4 1 1 3 4 1 5 7 3 5 2 4 4 4 11 5 3 2 1 1 2 4 6 5 1 5 6 7 21 9 13 13 13 16 15 15
33 14 7 4 4 15 18 4 4 4 7 7 6 6 6 5 6 1 5 4 2 3 4 5 2 3 3 2 4 5 4 4 4 2 5 1 6 13 12 15 18 8 10 11 14
24 8 3 5 9 14 8 4 6 7 8 6 6 9 2 12 7 8 6 2 6 2 3 1 5 4 5 2 5 4 6 4 4 4 11 17 8 8 8 10 1 2 5 9 12
17 5 3 1 5 8 5 5 2 5 7 6 6 3 5 9 6 8 7 5 4 4 2 2 4 5 9 8 1 2 3 6 3 8 5 8 13 11 3 6 10 9 9 11 13
11 6 5 2 4 6 5 2 2 2 4 3 3 4 5 8 7 6 5 2 2 5 2 3 6 7 3 4 2 4 3 2 1 3 5 4 8 8 7 10 9 11 9 11 13
4 3 3 3 4 5 3 4 5 10 6 2 2 5 4 2 4 5 3 10 3 2 5 3 2 4 3 3 3 4 2 2 1 2 3 5 6 6 10 9 8 13 13 14 12
5 2 1 3 4 1 1 3 6 7 1 2 1 3 1 4 4 4 6 4 4 3 2 2 1 4 8 18 12 10 5 4 3 5 3 5 9 9 6 6 8 11 15 15 11
3 3 2 1 2 3 5 5 3 7 4 5 5 5 5 4 2 4 6 5 5 5 5 4 2 4 8 5 5 1 4 4 3 3 6 7 7 4 7 10 6 10 11 11 13
2 4 4 4 1 2 5 5 5 7 4 4 4 5 5 3 3 5 8 4 4 5 11 8 5 8 8 9 4 12 18 17 12 5 11 13 22 14 11 11 5 9 10 12 13
4 2 1 4 3 6 2 4 9 5 6 4 4 2 3 4 4 5 4 6 7 9 5 7 7 6 12 17 16 21 21 19 18 17 10 14 8 6 9 14 6 8 5 18 11
2 3 4 3 5 5 3 2 5 9 5 7 3 7 4 4 8 14 11 4 7 7 7 3 5 4 15 15 15 15 19 12 7 8 12 11 11 3 11 9 8 11 13 15 14
6 5 3 4 4 3 2 4 8 9 7 8 6 6 6 7 13 12 11 10 11 11 10 7 5 1 17 6 11 10 3 1 3 8 6 6 2 8 11 13 14 13 17 12 12

GFSSW_925_spd_063.txt.gz
Wind_Speed
19 19 19 19 19 18 17 16 15 14 14 15 16 17 18 20 23 14 7 8 3 3 6 10 9 7 3 3 3 2 2 8 8 8 2 8 4 2 3 6 6 4 4 9 13
20 20 20 20 20 20 18 17 15 14 14 15 17 18 18 19 18 11 5 9 6 5 5 4 4 0 2 4 3 4 5 9 5 8 11 16 6 13 8 14 8 12 14 21 10
21 21 22 22 22 20 19 17 15 14 14 16 18 17 14 13 4 5 2 6 4 4 6 3 4 2 2 2 4 5 6 3 2 1 3 13 11 10 9 16 3 11 14 14 2
22 22 23 23 23 22 20 19 16 15 14 16 16 12 10 3 2 4 0 3 4 3 3 3 2 2 4 5 4 4 4 2 2 5 5 11 14 14 15 22 8 7 9 7 8
23 23 24 24 24 24 22 19 17 14 13 13 12 9 3 3 7 2 3 4 6 5 5 3 1 1 2 2 4 3 4 5 6 8 7 10 16 17 27 20 7 8 7 10 10
26 26 27 26 25 25 22 19 16 13 11 10 8 5 2 3 4 5 7 8 9 8 4 6 5 6 3 2 1 2 2 6 5 5 5 9 11 8 25 10 11 8 9 9 10
28 29 30 29 27 25 23 19 14 11 10 8 4 1 1 9 1 3 10 12 13 17 4 6 5 2 4 4 1 3 4 5 4 6 7 6 13 18 16 14 13 12 8 7 10
30 30 33 30 28 27 24 16 12 10 10 5 0 2 6 3 8 7 8 11 8 6 18 14 7 2 3 2 6 4 4 3 5 2 6 10 18 4 7 7 12 10 9 8 9
31 31 33 30 29 26 20 15 12 5 2 4 3 3 8 9 3 7 6 3 8 6 7 6 4 2 4 3 5 6 1 2 6 3 4 6 3 5 7 7 9 11 9 12 10
31 33 33 29 24 21 17 7 7 8 8 4 2 2 5 3 5 6 3 9 3 3 6 4 4 2 3 4 2 3 3 4 5 6 4 11 8 6 7 5 8 7 8 12 12
31 31 33 28 19 15 16 3 5 3 3 5 4 4 6 9 12 5 4 2 2 6 3 2 4 3 6 7 6 3 3 4 5 6 7 11 17 9 6 5 7 7 8 10 11
32 31 30 23 15 8 6 3 2 5 7 7 8 7 16 6 5 6 0 3 2 2 3 6 2 6 4 3 4 2 3 1 4 4 5 9 22 15 5 6 5 7 8 9 10
30 32 27 17 7 4 5 6 13 6 2 7 4 4 6 10 5 7 4 1 1 2 1 3 7 6 1 5 3 1 3 2 3 5 4 6 15 8 2 3 6 6 6 8 9
31 28 22 13 2 8 2 18 9 2 3 4 2 4 3 2 3 8 7 6 1 6 2 4 4 2 5 3 0 3 2 2 6 6 5 4 13 8 5 8 5 8 8 10 11
34 24 14 4 3 0 8 17 8 2 4 3 0 3 2 4 2 4 6 4 7 6 5 8 4 5 3 1 1 4 3 3 2 4 4 2 5 13 15 17 9 9 9 7 7
30 15 7 0 3 6 16 15 2 4 2 3 3 4 4 4 4 5 3 3 1 4 3 7 1 2 3 1 1 3 3 5 4 2 2 8 7 13 1 3 6 7 8 7 9
21 6 2 2 2 12 17 3 4 4 5 5 3 6 3 4 5 5 1 5 1 2 2 4 2 2 4 3 4 6 5 4 4 2 5 3 3 12 15 15 6 5 9 8 9
12 6 2 4 7 13 6 4 5 2 2 2 4 5 3 7 5 7 3 3 5 4 2 2 4 5 3 3 4 5 6 4 4 3 10 9 7 7 5 6 5 7 8 11 12
6 4 3 4 9 9 5 4 4 1 3 3 6 2 3 4 2 7 5 3 2 2 3 2 5 4 6 3 5 2 3 5 4 4 2 5 9 9 16 7 7 7 8 12 12
5 6 4 5 7 5 4 2 2 2 4 1 1 1 3 2 1 4 2 4 5 4 5 2 4 6 3 3 3 6 4 1 2 3 4 5 7 10 10 14 7 10 12 12 11
5 3 5 6 6 5 3 4 4 5 5 5 5 4 5 2 2 2 5 6 5 3 4 4 5 4 1 4 6 2 1 2 2 4 3 4 5 5 10 10 9 12 13 11 14
5 2 12 9 4 1 1 2 5 5 4 4 5 6 5 4 4 4 5 5 5 6 5 5 4 4 9 13 8 4 6 6 4 5 3 4 19 9 8 8 9 13 12 11 10
2 3 5 3 2 3 6 5 4 3 4 4 3 1 2 3 2 5 4 3 5 5 5 5 1 3 7 4 4 3 4 4 2 2 14 9 12 5 11 14 12 13 9 9 10
2 3 4 4 1 2 3 4 5 5 1 2 4 1 4 3 4 5 4 4 2 1 11 6 5 7 7 9 3 10 12 14 13 5 8 15 29 19 11 10 12 13 7 7 15
3 0 2 4 2 2 3 3 3 4 5 5 4 2 4 4 4 6 5 6 8 8 5 7 7 7 10 13 13 17 19 18 17 21 15 19 18 24 7 8 8 7 8 13 12
2 3 4 3 4 5 1 0 2 3 3 5 2 7 6 6 7 8 6 5 9 6 4 2 4 4 4 10 16 19 17 17 18 14 9 11 17 13 8 7 7 7 10 13 12
5 3 3 3 3 2 3 1 3 8 7 4 4 5 6 8 5 13 13 14 14 8 6 6 4 2 16 11 10 11 14 7 4 6 4 8 11 6 12 11 11 11 12 14 14

GFSSW_925_spd_069.txt.gz
Wind_Speed
16 16 16 16 16 16 15 14 13 12 11 12 13 15 17 17 18 9 6 3 4 7 2 5 1 2 3 3 4 4 7 12 18 16 9 2 2 1 3 9 4 2 7 13 18
18 18 17 17 16 16 15 15 13 11 11 12 14 16 16 16 13 8 4 3 3 2 1 2 3 3 3 4 5 8 10 17 7 9 11 8 6 8 6 11 11 8 10 14 15
20 19 18 18 17 16 16 15 14 10 9 10 13 14 13 12 4 3 3 5 3 1 0 2 2 2 5 3 6 6 12 8 7 10 11 14 9 4 8 17 7 13 17 17 14
20 20 20 20 19 18 16 15 14 10 7 8 11 12 11 3 2 2 2 4 3 2 3 3 3 5 4 7 3 7 5 11 14 12 5 7 3 7 11 18 11 11 17 10 14
21 21 21 20 20 19 18 16 14 8 5 5 8 10 3 2 4 0 4 4 3 1 2 2 3 3 5 3 3 7 3 4 6 9 8 7 15 15 15 13 16 9 12 14 10
22 22 22 22 22 20 18 16 13 9 4 4 4 5 1 2 2 2 5 6 5 3 1 4 2 2 3 2 4 1 2 6 7 10 6 9 17 9 8 5 10 13 13 6 4
24 24 23 23 22 21 18 15 12 8 5 4 2 1 1 7 3 3 4 6 8 6 2 4 3 3 1 2 1 1 6 8 11 12 12 11 17 22 2 6 13 10 7 4 5
26 25 24 24 23 20 17 14 10 8 5 4 4 2 5 3 7 9 6 5 8 7 6 5 4 1 2 1 2 1 2 4 3 2 5 12 14 2 8 1 6 7 5 6 5
26 26 25 25 21 16 12 5 4 3 5 8 4 2 3 7 3 3 5 3 3 3 2 3 2 1 1 1 2 1 3 3 2 5 4 3 5 3 7 9 10 7 6 5 7
27 25 26 24 17 13 5 8 10 8 8 4 1 2 3 1 3 7 6 6 3 3 3 2 2 3 2 3 3 1 2 2 5 2 7 7 8 12 10 9 9 9 8 5 4
26 25 24 20 13 8 5 2 0 2 2 4 2 4 4 7 5 3 0 3 1 3 2 1 4 4 3 4 3 3 4 5 5 2 9 11 13 13 15 13 12 10 9 7 6
27 25 21 12 6 4 5 3 2 3 5 4 7 6 8 2 3 3 4 4 2 2 1 3 7 5 2 2 4 5 5 7 7 5 8 14 19 17 14 14 14 13 8 8 5
26 23 17 6 3 4 6 4 10 6 2 4 4 3 1 6 3 4 6 4 3 3 4 4 1 5 3 2 4 6 8 4 5 7 9 12 13 3 4 7 6 3 5 5 8
25 19 9 3 3 1 1 10 9 6 2 1 2 2 4 3 4 5 7 4 2 3 4 5 2 5 6 7 7 7 5 3 4 6 8 6 9 12 9 2 4 2 5 5 7
21 11 3 3 3 1 6 13 1 2 2 2 2 2 1 4 4 2 2 3 11 7 4 2 3 4 7 4 5 2 2 2 5 11 10 13 7 3 3 6 5 6 2 6 7
14 7 3 4 2 4 12 5 2 2 4 3 1 3 3 1 2 6 1 1 2 5 6 12 1 3 2 3 2 3 2 7 1 3 6 3 5 4 4 5 7 10 6 10 5
9 5 3 3 2 11 10 1 2 3 2 1 0 3 2 2 2 3 3 2 5 5 9 4 4 1 2 4 2 2 4 4 3 4 3 5 8 11 7 7 11 13 13 12 9
6 4 3 5 8 8 3 1 5 1 2 1 1 5 4 1 1 4 2 3 3 2 4 7 9 6 5 4 1 3 3 4 5 4 5 5 9 2 5 7 11 9 7 9 11
4 3 1 7 8 7 1 2 3 3 1 3 5 3 2 3 3 3 4 5 5 5 5 4 5 1 5 2 2 3 6 2 6 8 7 6 8 10 10 4 3 1 6 12 13
4 2 2 13 6 1 1 3 2 2 2 2 4 5 4 3 3 3 3 2 3 5 1 1 6 5 4 0 4 8 7 3 3 4 6 6 13 9 10 9 3 10 10 13 16
2 0 3 12 2 2 1 3 4 4 1 5 4 5 6 7 7 4 4 3 4 6 3 3 5 5 3 8 10 6 8 5 3 4 4 6 5 3 5 9 9 8 12 17 18
3 0 8 7 2 1 1 2 5 4 1 4 4 7 7 5 5 8 9 8 6 7 5 6 3 10 16 10 6 8 10 13 7 6 5 6 9 10 13 7 8 16 20 14 13
2 2 5 4 1 2 4 4 4 3 2 2 3 3 1 4 4 7 8 3 4 7 6 6 5 7 6 4 3 5 10 12 7 6 15 12 10 6 10 16 20 19 17 12 13
2 2 2 4 2 2 4 5 4 3 3 3 4 1 2 4 6 5 4 2 3 2 2 5 10 12 13 11 1 5 9 12 13 10 16 18 27 25 26 23 19 17 12 11 12
4 2 1 3 1 3 2 4 6 5 3 3 1 5 3 4 6 9 10 7 3 5 9 4 16 15 18 20 19 22 21 20 21 21 21 23 25 28 23 21 20 15 13 13 14
2 2 1 2 2 3 2 3 3 4 2 4 6 5 5 7 10 19 18 15 15 6 8 4 11 13 21 14 15 18 22 23 26 26 27 27 29 27 22 13 12 14 12 14 14
2 1 0 2 2 2 2 3 2 3 6 11 6 8 13 16 10 13 16 16 15 12 12 9 6 5 13 8 9 13 25 26 26 20 17 19 22 13 11 14 13 15 14 16 15

GFSSW_925_spd_072.txt.gz
Wind_Speed
16 16 16 16 16 15 15 14 14 11 10 10 11 13 15 16 15 8 6 3 2 8 3 6 6 7 9 11 13 13 14 19 24 21 16 9 12 7 10 11 10 6 8 10 17
17 17 17 16 16 16 15 15 15 12 9 9 11 13 14 14 11 6 4 3 2 2 4 5 8 8 10 12 9 14 16 27 22 20 18 14 17 10 7 12 13 11 4 12 19
18 18 18 18 18 18 17 16 15 13 11 8 10 12 12 10 8 6 1 4 3 2 2 3 4 9 13 11 16 16 23 21 21 15 17 18 20 17 14 14 14 13 13 16 16
20 19 19 19 19 19 18 17 16 13 10 8 9 10 9 4 1 4 3 4 3 2 1 4 6 10 11 14 15 16 16 18 21 16 15 18 17 21 17 16 6 12 14 17 15
20 21 20 19 19 18 18 16 15 13 8 6 7 8 5 7 3 3 4 4 3 1 1 1 3 5 11 7 11 16 19 10 14 18 20 18 20 18 17 13 8 14 13 14 16
19 20 21 21 20 19 17 15 13 10 7 5 5 5 6 7 5 3 6 5 4 4 1 2 2 3 5 10 10 4 12 14 16 16 18 19 21 18 19 10 9 11 13 15 12
21 20 20 20 21 20 17 14 12 7 5 4 2 3 7 2 5 3 5 5 5 5 4 2 2 6 2 7 4 11 13 15 16 18 21 18 22 25 17 9 18 17 13 13 11
21 21 18 19 19 18 16 14 10 6 5 5 3 4 5 3 3 6 6 8 7 6 6 5 5 7 7 2 9 11 11 15 14 11 17 14 19 3 2 12 16 17 16 16 11
22 20 20 19 17 14 9 4 4 3 5 6 3 5 3 3 6 2 6 5 4 4 5 2 8 8 5 11 10 10 13 8 7 4 4 11 14 20 3 6 5 5 10 11 10
22 21 20 16 10 8 5 7 7 8 7 4 5 5 5 5 3 3 4 6 6 4 5 9 7 10 9 9 9 6 9 7 11 7 9 13 13 12 11 10 10 11 13 10 11
24 22 18 12 5 3 4 1 6 6 8 6 1 5 1 1 4 9 5 6 6 8 10 7 10 11 7 4 9 8 9 11 8 6 10 13 16 16 16 16 16 14 13 13 11
24 20 14 6 1 4 2 2 6 6 6 6 7 8 8 4 4 9 9 8 8 8 4 9 13 7 3 6 8 10 13 12 8 8 9 15 19 20 20 18 19 18 17 15 11
23 14 8 1 5 4 4 5 7 2 6 3 4 4 5 10 5 5 12 10 9 9 7 10 4 3 9 8 10 12 12 12 11 13 16 19 20 21 7 10 9 11 10 7 6
20 11 3 7 3 1 2 8 8 4 5 9 6 5 6 4 5 5 10 7 7 9 5 8 6 8 10 11 11 14 6 8 10 12 12 8 10 12 10 12 9 11 9 8 5
16 7 5 3 2 1 6 10 2 4 4 7 5 4 2 8 5 7 5 10 15 10 7 4 11 10 11 13 8 13 1 9 12 15 18 19 11 14 4 9 9 6 3 5 1
11 5 6 4 2 4 9 5 4 5 4 7 4 5 7 8 6 3 6 7 6 14 16 18 9 9 12 4 8 1 9 12 17 13 15 19 14 10 9 7 10 11 3 3 2
8 4 3 2 3 7 6 4 5 6 3 4 5 5 8 11 10 8 11 13 12 13 17 19 18 14 9 12 9 11 12 10 10 11 11 6 6 14 4 5 3 6 4 3 5
5 1 1 1 4 5 4 5 7 2 4 1 4 9 12 6 11 9 12 13 12 15 15 15 14 15 13 16 15 11 9 10 17 12 10 12 7 2 5 3 4 2 3 3 3
5 3 3 2 4 3 5 7 4 2 3 4 9 11 10 6 6 7 13 15 14 9 14 11 15 3 6 7 9 11 11 8 12 16 14 16 14 7 13 9 8 5 5 7 6
4 5 3 7 3 5 5 5 4 2 3 4 6 4 8 5 6 4 7 1 6 9 8 10 12 14 8 7 14 13 12 8 10 11 18 14 13 8 12 7 7 5 5 7 12
2 4 3 4 3 5 5 4 5 4 5 5 8 11 12 12 12 13 7 6 6 6 8 12 10 14 9 14 16 8 13 12 14 13 12 12 6 10 2 3 5 5 9 14 15
4 3 3 3 4 2 5 3 4 9 7 10 8 14 17 16 16 16 14 11 1 8 11 13 7 14 18 16 12 13 18 15 12 15 11 13 16 6 6 6 3 11 14 12 13
5 3 1 5 3 3 5 10 6 9 7 4 6 5 5 10 9 11 12 8 9 11 8 8 9 12 16 8 5 12 17 16 16 15 19 13 8 9 9 13 14 17 14 14 12
4 3 2 2 3 5 5 5 5 3 10 6 9 9 11 14 14 11 12 6 5 10 4 5 15 18 16 19 6 7 7 13 17 13 17 20 21 20 22 20 17 18 15 14 12
3 2 3 3 1 8 3 5 9 6 4 6 5 6 8 9 13 16 17 14 12 11 12 11 20 21 21 22 21 22 21 22 22 22 22 23 25 23 24 22 20 16 14 13 15
4 4 1 6 5 8 1 3 8 7 5 8 12 13 12 15 15 19 19 19 19 15 14 15 18 18 23 21 21 23 23 26 26 26 27 27 29 25 26 20 14 12 15 16 16
3 2 3 3 3 4 4 5 6 7 8 9 11 12 13 16 17 17 17 17 16 15 13 11 7 6 14 16 13 15 21 21 24 25 22 24 25 18 16 13 12 13 15 17 20

GFSSW_925_spd_075.txt.gz
Wind_Speed
15 15 16 16 16 16 16 15 14 13 12 10 11 13 15 16 17 12 11 2 3 10 11 12 11 13 16 18 21 20 18 21 25 24 19 15 14 13 13 16 26 9 7 7 9
16 16 16 16 16 16 17 16 15 14 12 12 11 12 13 14 14 13 3 4 5 3 8 12 13 14 14 17 19 20 17 27 25 22 22 22 19 14 12 14 21 24 15 5 11
18 17 17 16 16 16 17 16 15 14 12 11 11 11 12 11 14 9 5 4 4 5 8 8 11 10 17 19 19 22 24 24 21 23 24 24 24 13 16 14 15 21 27 13 13
19 18 17 17 17 16 16 15 14 13 10 9 9 10 11 8 2 10 5 4 2 4 6 5 11 14 17 19 20 23 25 23 23 26 25 22 19 21 22 19 16 12 26 22 17
20 19 18 18 17 17 17 15 13 11 9 7 7 8 7 8 6 10 5 4 4 6 6 4 8 10 16 15 18 21 21 20 22 19 23 23 22 24 24 17 12 11 18 28 19
22 21 20 18 18 17 16 15 13 11 7 6 5 6 9 13 7 9 7 6 7 7 2 7 4 7 10 15 13 16 13 18 22 21 20 23 23 22 27 21 22 17 19 27 24
21 21 20 19 18 18 16 14 11 7 5 5 5 6 11 4 4 6 7 9 4 6 9 5 7 9 7 11 15 13 17 18 19 19 21 19 25 28 25 23 22 18 19 21 16
22 21 19 19 18 15 13 10 7 5 5 5 4 7 10 7 8 8 8 8 7 7 8 9 8 11 13 13 9 16 18 18 20 23 22 19 26 25 25 23 24 16 19 16 20
23 22 19 16 14 10 6 5 4 1 5 4 5 10 9 8 12 12 9 10 8 8 8 8 12 13 14 12 15 17 15 18 19 5 8 18 25 20 22 11 12 14 16 16 21
24 23 20 13 7 4 1 1 1 5 3 6 11 7 8 10 11 8 8 8 9 8 9 11 11 13 13 13 14 12 15 12 11 8 13 17 20 19 14 13 15 15 15 16 16
25 23 17 9 3 1 1 4 6 7 12 12 1 9 2 2 5 11 10 10 10 10 13 14 11 14 16 13 12 13 16 16 16 9 10 13 19 20 18 18 16 16 16 15 16
23 19 14 3 1 2 5 5 5 7 9 10 9 9 6 4 6 12 11 12 13 13 13 9 14 16 14 8 11 14 17 17 17 14 13 16 20 20 20 21 19 19 18 17 17
20 14 5 2 3 4 4 5 6 6 7 8 7 10 10 12 11 7 13 14 15 14 15 15 17 6 11 12 14 16 16 16 17 15 15 16 25 25 23 28 24 24 21 20 20
17 10 1 6 4 1 3 5 7 4 6 14 10 8 8 8 12 12 10 15 12 14 14 12 15 4 12 13 13 16 14 15 10 13 14 16 17 18 18 13 14 13 13 13 6
13 6 4 3 11 7 7 9 6 5 5 10 10 7 5 13 4 13 11 13 17 17 12 17 13 10 15 15 13 16 17 10 15 16 18 21 14 18 20 17 10 9 11 13 13
13 4 3 3 6 4 8 6 5 7 6 7 5 8 13 14 14 9 9 13 15 18 19 23 19 16 16 15 12 13 13 15 18 16 17 22 18 18 16 15 13 10 8 7 6
10 5 6 6 8 8 7 8 7 7 4 5 5 10 12 13 12 14 15 17 16 17 19 22 23 24 21 18 18 13 15 13 16 15 17 18 7 12 6 4 2 15 11 8 6
14 8 7 9 9 7 9 8 11 5 6 5 7 12 15 15 16 12 15 16 17 19 17 18 19 17 17 15 19 17 16 12 18 16 18 4 8 8 8 12 8 6 9 5 9
13 8 11 7 7 7 7 9 10 10 5 8 12 15 17 11 4 10 13 17 18 18 17 15 21 11 4 11 14 17 18 19 15 19 17 20 28 26 15 12 8 10 10 10 8
8 7 11 3 5 9 8 12 13 0 8 10 14 9 14 12 9 12 13 8 5 11 12 17 18 17 13 13 16 18 18 15 7 13 21 19 21 15 18 15 15 13 10 10 5
6 4 5 1 4 7 8 12 8 9 8 7 12 15 16 16 16 18 18 16 10 10 12 13 16 20 18 19 20 15 17 20 18 15 15 17 12 14 10 3 10 11 8 6 13
6 4 4 1 6 5 7 6 3 12 13 15 13 16 16 17 19 20 21 19 9 10 15 15 7 16 21 18 17 16 22 18 11 11 14 16 18 7 0 7 11 7 8 13 12
6 6 4 4 5 6 10 13 13 12 13 8 10 11 11 14 12 13 14 13 10 13 11 9 8 14 18 19 6 13 18 18 19 18 23 16 20 15 13 18 10 12 11 12 13
4 4 3 5 2 6 10 13 9 5 11 12 11 14 15 17 17 15 18 14 6 11 8 7 15 20 17 22 11 8 12 15 12 12 19 20 24 12 14 15 29 11 16 12 11
1 2 3 5 6 8 10 13 16 13 6 9 8 12 12 13 14 17 19 19 15 12 8 11 19 21 22 25 24 25 26 24 23 22 20 20 25 19 24 22 18 19 19 15 11
4 4 3 12 12 10 9 11 14 12 12 16 16 15 14 16 18 20 20 18 17 17 18 16 17 19 24 23 24 25 26 23 25 24 24 26 28 24 27 24 21 21 18 13 14
5 3 4 9 10 9 10 11 14 16 11 8 10 12 15 16 17 18 19 18 17 16 16 15 11 12 17 19 16 15 21 22 20 20 21 22 23 22 19 21 18 6 9 17 13